User: anonymous   Login
Location: Saint Peter Port
(49.4500°N, 2.5330°W)
Time: 16:53:01
(UTC+00:00)
Language:

Cosmos 2242 Rocket - Orbit

View from above orbital plane
View from above orbital plane
View from above satellite
View from above satellite

Ground track
Ground track

The orbit data is extracted from the following two-line orbital elements,

1 22627U 93024B   17057.52842547  .00000045  00000-0  30100-5 0  9992
2 22627  82.5228 202.8804 0022835 336.0303  90.6975 14.78066549285809
Epoch (UTC): 26 February 2017 12:40:55
Eccentricity: 0.0022835
inclination: 82.5228°
perigee height: 619 km
apogee height: 651 km
right ascension of ascending node: 202.8804°
argument of perigee: 336.0303°
revolutions per day: 14.78066549
mean anomaly at epoch: 90.6975°
orbit number at epoch: 28580

The dashed part of the orbit path shows where the satellite is in the earth's shadow,  

DLR